La Paz, Mexico

4:52 PM MDT on August 18, 2017 (GMT -0600)
Gen Manuel Marquez De Leon

Weather History for MMLP - December, 2011

Change the Weather History Date:

Tuesday, December 6, 2011

  Actual Average Record
Temperature  
Mean Temperature 66 °F -  
Max Temperature 70 °F 76 °F 91 °F (2012)
Min Temperature 62 °F 53 °F 46 °F (2010)
Cooling Degree Days 1    
Growing Degree Days 16 (Base 50)    
Moisture  
Dew Point 45 °F    
Average Humidity 46    
Maximum Humidity 59    
Minimum Humidity 33    
Precipitation  
Precipitation 0.00 in - - ()
Sea Level Pressure  
Sea Level Pressure 30.11 in    
Wind  
Wind Speed 14 mph ()    
Max Wind Speed 23 mph    
Max Gust Speed -    
Visibility 10.1 miles    
Events      
Averages and records for this station are not official NWS values.
T = Trace of Precipitation, MM = Missing Value Source: Averaged Metar Reports

Daily Weather History Graph

Daily Weather History Graph

Search for Another Location

Airport or City:

Trip Planner

Search our weather history database for the weather conditions in past years. The results will help you decide how hot, cold, wet, or windy it might be!

Date:

Astronomy

Dec. 06, 2011 Rise Set
Actual Time 6:50 AM MST 5:33 PM MST
Civil Twilight 6:26 AM MST 5:58 PM MST
Nautical Twilight 5:58 AM MST 6:26 PM MST
Astronomical Twilight 5:30 AM MST 6:54 PM MST
Moon 2:52 PM MST (12/6) 3:26 AM MST (12/6)
Length of Visible Light 11h 32m
Length of Day
10h 42m
Waxing Gibbous, 87% of the Moon is Illuminated
Dec 6
Waxing Gibbous
Dec 10
Full
Dec 17
Last Quarter
Dec 24
New
Dec 31
First Quarter

Hourly Weather History & Observations

Time (MST) Temp. Dew Point Humidity Pressure Visibility Wind Dir Wind Speed Gust Speed Precip Events Conditions
1:50 AM 64 °F 49 °F 48% 30.06 in 2 mi North 6.7 mph - -  
4:50 AM 64 °F 48 °F 45% 30.04 in 2 mi North 15.7 mph - -  
5:54 AM 64.4 °F 46.4 °F 52% 30.06 in 8.0 mi North 20.7 mph - N/A   Clear
6:42 AM 62.6 °F 44.6 °F 52% 30.08 in 10.0 mi North 20.7 mph - N/A   Scattered Clouds
7:40 AM 64.4 °F 44.6 °F 49% 30.14 in 10.0 mi North 19.6 mph - N/A   Mostly Cloudy
7:50 AM 65 °F 45 °F 37% 30.11 in 11 mi North 13.4 mph - -   Partly Cloudy
8:40 AM 64.4 °F 44.6 °F 49% 30.12 in 10.0 mi North 23.0 mph - N/A   Mostly Cloudy
9:42 AM 66.2 °F 44.6 °F 46% 30.13 in 10.0 mi NNE 23.0 mph - N/A   Mostly Cloudy
10:40 AM 66.2 °F 44.6 °F 46% 30.18 in 10.0 mi NNE 20.7 mph - N/A   Mostly Cloudy
10:50 AM 68 °F 47 °F 36% 30.13 in 19 mi North 15.7 mph - -   Clear
11:41 AM 68.0 °F 42.8 °F 40% 30.11 in 10.0 mi NE 21.9 mph - N/A   Mostly Cloudy
12:40 PM 68.0 °F 41.0 °F 37% 30.09 in 10.0 mi North 21.9 mph - N/A   Mostly Cloudy
1:42 PM 68.0 °F 41.0 °F 37% 30.13 in 10.0 mi NE 20.7 mph - N/A   Mostly Cloudy
1:50 PM 69 °F 47 °F 33% 30.08 in 19 mi North 13.4 mph - -   Partly Cloudy
2:47 PM 68.0 °F 41.0 °F 37% 30.06 in 10.0 mi NE 21.9 mph - N/A   Mostly Cloudy
3:43 PM 66.2 °F 44.6 °F 46% 30.06 in 10.0 mi North 20.7 mph - N/A   Mostly Cloudy
4:49 PM 66.2 °F 44.6 °F 46% 30.17 in 10.0 mi NNE 20.7 mph - N/A   Mostly Cloudy
4:50 PM 67 °F 48 °F 39% 30.08 in 19 mi North 11.2 mph - -   Clear
6:44 PM 64.4 °F 44.6 °F 49% 30.10 in 10.0 mi NE 13.8 mph - N/A   Scattered Clouds
7:50 PM 64 °F 49 °F 48% 30.10 in 2 mi North 11.2 mph - -   Clear
7:50 PM 62.6 °F 44.6 °F 52% 30.19 in 10.0 mi SSW 11.5 mph - N/A   Scattered Clouds
8:50 PM 62.6 °F 46.4 °F 55% 30.12 in 10.0 mi NE 11.5 mph - N/A   Partly Cloudy
9:48 PM 62.6 °F 48.2 °F 59% 30.12 in 10.0 mi NNE 9.2 mph - N/A   Clear
10:47 PM 62.6 °F 48.2 °F 59% 30.17 in 10.0 mi NNE 9.2 mph - N/A   Clear